CZ-3B DEB, 42475

Orbit data source: Space-Track

CZ-3B DEB, 42475 is space debris in HEO originally from a launch on Mon, 19 Dec 2011 UTC launched from the Xichang Space Center, China (XSC). Debris objects in space refer to the collection of defunct objects orbiting the Earth. Examples of debris include non-operational satellites, rocket bodies, and fragments generated from explosions, collisions, or faulty payload assembly.

Loading next visibility...
Identifier
42475, 2011-077AQ
Orbit
HEO
Country
Flag of CNCN / PRC
Related business
Manufacturer
CALT
Mission
Spacecraft
Bus & Motor
Unknown
Mass
Unknown
Launch date (UTC)
2011-12-19 (14 years ago)
Launch vehicle
Unknown
Launch site
Xichang Space Center, China (XSC)
Object type
Payload
Rocket body
Debris
Shape & HBR
Unknown shape, 0.2 m
Radar Cross Section
Medium (>0.1 m² and <1 m²)

Expand to show TLE details & history
Last TLE update: 2 days ago

TLE from 2 days ago
0 CZ-3B DEB
1 42475U 11077AQ  25339.19392257 -.00000063  00000-0  63948-2 0  9990
2 42475  26.5870 356.6287 7405410  41.4846 355.7732  1.91381794 29171
Epoch: 2025-12-05T04:39Z
TLE epoch observation values (Epoch: 2025-12-05T04:39:14.910Z)
Latitude
0.00007°
Longitude
-147.42926°
Altitude
1,563.396 km
Speed
9.265 km/s
True Right ascension
23h 46m 29s
True Declination
0° 00' 00"
Sunlit
Object was in daylight at epoch
Visualization orbit readout
Latitude
Unknown
Longitude
Unknown
Altitude
Unknown
Speed
Unknown
Apparent Right ascension
Unknown
Apparent Declination
Unknown
Sunlit
N/A
Visualization observer readout
Local Sidereal Time
13:32:31
Azimuth
Unknown
Elevation
Unknown
Doppler factor
Unknown
Orbital elements
Apogee altitude
41,324.75 km
Perigee altitude
732.838 km
Semi-major axis
27,406.931 km
Eccentricity
0.74054
Inclination
26.587°
RAAN
356.6287°
Arg. of periapsis
41.4846°
True anomaly
320.62918°
Mean anomaly
355.7732°
Eccentric anomaly
344.27095°
Mean motion
0.47836 °/min
Orbital period
752.58 mins
BSTAR
0.0063948
Loading maneuver chart data...
Computing Atmospheric mass density...
Loading historical data...
Loading historical data...
Loading historical data...
Loading historical data...
Loading historical data...
Loading historical data...
Loading historical data...

Documentation

Showing up to 5 results
|